sat.trackr.live / text

‹ back to catalog

KKS-1 (KISEKI)

NORAD 33499 · 2009-002H

PAYLOAD ACTIVE UNKNOWN

§ Identity

Operator
Country
JPN
Launch date
2009-01-23
Launch site
TANSC
Launch vehicle
Mass (kg)
RCS (m²)
0.09

Purposes: comms

External: N2YO · Heavens-Above · Gunter

§ Orbital elements

Epoch: 2026-05-25T02:45:53.680032Z

Period
97.10 min
Inclination
98.1194°
Eccentricity
0.0008259
Mean motion
14.83053081 rev/d
Perigee alt
613.9 km
Apogee alt
625.5 km
Semi-major
6,997.8 km
B*
1.5071e-4
RAAN
67.1926°
Arg perigee
15.6923°
Mean anomaly
344.4544°
Rev number
93,277

§ Raw data

KKS-1 (KISEKI)1 33499U 09002H   26145.11520463  .00001171  00000+0  15071-3 0  99952 33499  98.1194  67.1926 0008259  15.6923 344.4544 14.83053081932772

JSON: /api/v1/satellites/33499 · /tle

For live sub-satellite position, see the globe view (requires WebGL).

§ Visibility from observer

Set your observer location to see the next 7 days of passes ≥ 10°. The values pass through the URL so the page stays shareable.

No JS? Fill the form by hand. The geolocation button needs JavaScript.

§ Radio — SatNOGS DB

ModeDescriptionDownlinkUplink
CW CW Beacon 437.385 MHz
AFSK Mode U MSG 437.445 MHz

2 transmitters · refreshed weekly from db.satnogs.org